SCOUT B DEB, 29170

Orbit data source: Space-Track

SCOUT B DEB, 29170 is space debris in LEO originally from a launch on Tue, 10 Aug 1965 UTC launched from the Wallops Island (WLPIS). Debris objects in space refer to the collection of defunct objects orbiting the Earth. Examples of debris include non-operational satellites, rocket bodies, and fragments generated from explosions, collisions, or faulty payload assembly.

Loading next visibility...
Identifier
29170, 1965-063U
Orbit
LEO
Country
Flag of USUS
Related business
Manufacturer
Unknown
Mission
Spacecraft
Bus & Motor
Unknown
Mass
Unknown
Launch date (UTC)
1965-08-10 (60 years ago)
Launch vehicle
Unknown
Launch site
Wallops Island (WLPIS)
Object type
Payload
Rocket body
Debris
Shape & HBR
Unknown shape, 0.1 m
Radar Cross Section
Small (<0.1 m²)

Expand to show TLE details & history
Last TLE update: 3 weeks ago

TLE from 3 weeks ago
0 SCOUT B DEB
1 29170U 65063U   26018.95356660 -.00000383  00000-0 -22692-2 0  9995
2 29170  69.2222 123.6882 0742192 116.0370   1.5864 11.90280258 64546
Epoch: 2026-01-18T22:53Z
TLE epoch observation values (Epoch: 2026-01-18T22:53:08.154Z)
Latitude
55.84489°
Longitude
168.24403°
Altitude
1,132.075 km
Speed
7.558 km/s
True Right ascension
17h 59m 32s
True Declination
55° 41' 34"
Sunlit
Object was in daylight at epoch
Visualization orbit readout
Latitude
Unknown
Longitude
Unknown
Altitude
Unknown
Speed
Unknown
Apparent Right ascension
Unknown
Apparent Declination
Unknown
Sunlit
N/A
Visualization observer readout
Local Sidereal Time
08:52:39
Azimuth
Unknown
Elevation
Unknown
Doppler factor
Unknown
Orbital elements
Apogee altitude
2,324.231 km
Perigee altitude
1,121.715 km
Semi-major axis
8,101.11 km
Eccentricity
0.07422
Inclination
69.2222°
RAAN
123.6882°
Arg. of periapsis
116.037°
True anomaly
1.84581°
Mean anomaly
1.5864°
Eccentric anomaly
1.71356°
Mean motion
2.97664 °/min
Orbital period
120.94 mins
BSTAR
-0.0022692
Loading maneuver chart data...
Computing Atmospheric mass density...
Loading historical data...
Loading historical data...
Loading historical data...
Loading historical data...
Loading historical data...
Loading historical data...
Loading historical data...

Documentation

Showing up to 5 results
|